Flag for Germany Weather past 2 weeks in Völklingen, Saarland, Germany

Now
34 °F

Chilly.


Feels Like: 25 °F
Forecast: 33 / 47 °F
Wind: 12 mph from West

Location: Saarbruecken / Ensheim

Current Time: Mar 3, 2015 at 12:10:53 AM

Latest Report: Mar 2, 2015 at 11:20 PM


Visibility: N/A

Pressure: 30.09 "Hg

Humidity: 87%

Dew point: 30 °F

Location of VölklingenLocation

Historic Weather in Völklingen — Graph

°F

Völklingen temperature yesterday

Maximum temperature yesterday: 48 °F (at 1:50 AM)
Minimum temperature yesterday: 36 °F (at 9:50 PM)
Average temperature yesterday: 42 °F

Past Weeks' High & Low Weather Summary

 TemperatureHumidityPressure
High52 °F (Feb 20, 3:50 PM)100% (Feb 16, 12:20 AM)30.69 "Hg (Feb 16, 12:20 AM)
Low27 °F (Feb 28, 5:50 AM)39% (Feb 28, 2:50 PM)29.45 "Hg (Feb 23, 12:50 PM)
Average37 °F85%29.98 "Hg
* Reported Feb 15 10:20 PM — Mar 2 10:50 PM, Völklingen, Weather by CustomWeather, © 2015

Note: Actual official high and low records may vary slightly from our data, if they occured in-between our weather recording intervals... More about our weather records

Advertising

Völklingen weather history for previous 24 hours

 ConditionsComfort  
Time TempWeatherWind HumidityBarometerVisibility
10:50 PM
Mon, Mar 2
36 °FClear.10 mph81%30.07 "Hg10 mi
10:20 PM36 °FClear.12 mph81%30.07 "Hg10 mi
9:50 PM36 °FClear.9 mph81%30.07 "Hg10 mi
9:20 PM37 °FClear.12 mph75%30.04 "Hg10 mi
8:50 PM37 °FClear.15 mph75%30.01 "Hg10 mi
8:20 PM37 °FPassing clouds.18 mph65%30.01 "HgN/A
7:50 PM37 °FPassing clouds.18 mph70%29.98 "HgN/A
7:20 PM39 °FPassing clouds.16 mph75%29.95 "HgN/A
6:50 PM39 °FPassing clouds.17 mph81%29.92 "HgN/A
6:20 PM39 °FPassing clouds.18 mph81%29.89 "HgN/A
5:50 PM39 °FSprinkles. Scattered clouds.18 mph87%29.89 "HgN/A
5:20 PM39 °FPassing clouds.17 mph87%29.86 "HgN/A
4:50 PM39 °FSprinkles. Scattered clouds.16 mph87%29.86 "HgN/A
4:20 PM37 °FSprinkles. Scattered clouds.24 mph87%29.86 "HgN/A
3:50 PM41 °FScattered clouds.13 mph87%29.83 "HgN/A
3:20 PM43 °FScattered clouds.10 mph81%29.80 "HgN/A
2:50 PM39 °FScattered clouds.12 mph93%29.80 "HgN/A
2:20 PM39 °FHail. Broken clouds.22 mph87%29.83 "Hg3 mi
1:50 PM45 °FBroken clouds.13 mph61%29.80 "HgN/A
1:20 PM45 °FScattered clouds.16 mph57%29.80 "HgN/A
12:50 PM45 °FScattered clouds.13 mph66%29.80 "HgN/A
12:20 PM45 °FBroken clouds.16 mph66%29.80 "HgN/A
11:50 AM43 °FBroken clouds.17 mph71%29.77 "HgN/A
11:20 AM43 °FBroken clouds.16 mph71%29.77 "HgN/A
10:50 AM43 °FBroken clouds.20 mph76%29.77 "HgN/A
10:20 AM43 °FPartly sunny.20 mph71%29.77 "HgN/A
9:50 AM43 °FBroken clouds.15 mph71%29.74 "HgN/A
9:20 AM43 °FScattered clouds.15 mph76%29.74 "HgN/A
8:50 AM41 °FPartly sunny.18 mph81%29.74 "HgN/A
8:20 AM41 °FPartly sunny.18 mph81%29.71 "HgN/A
7:50 AM41 °FPartly sunny.16 mph81%29.68 "HgN/A
7:20 AM41 °FBroken clouds.18 mph81%29.68 "HgN/A
6:50 AM43 °FPartly cloudy.14 mph81%29.65 "HgN/A
6:20 AM43 °FLight rain. Partly cloudy.13 mph87%29.65 "HgN/A
5:50 AM43 °FPassing clouds.14 mph87%29.65 "HgN/A
5:20 AM43 °FPartly cloudy.18 mph87%29.65 "HgN/A
4:50 AM43 °FLight rain. Partly cloudy.18 mph93%29.65 "HgN/A
4:20 AM43 °FLight rain. Partly cloudy.15 mph93%29.62 "HgN/A
3:50 AM45 °FPartly cloudy.23 mph87%29.62 "HgN/A
3:20 AM45 °FLight rain. Passing clouds.20 mph93%29.62 "HgN/A
2:50 AM46 °FRain. Passing clouds.25 mph87%29.62 "Hg4 mi
2:20 AM46 °FRain. Passing clouds.26 mph93%29.62 "Hg5 mi
1:50 AM48 °FLight rain. Passing clouds.24 mph94%29.59 "Hg6 mi
1:20 AM46 °FLight rain. Passing clouds.24 mph93%29.59 "Hg5 mi
12:50 AM46 °FLight rain. Passing clouds.20 mph93%29.59 "Hg5 mi
12:20 AM46 °FLight rain. Passing clouds.17 mph93%29.59 "Hg5 mi
Weather by CustomWeather, © 2015

See weather overviewHow to use our weather pages